Temperature
13 13 13 13 13 13 13 13 13 13 13 13 13 14 14 14 14 14 14 15 15 15 15 15 15 15 15 14 14 14 14 14 14 14 14 14 14 15 15 15 15 15 14
13 13 13 13 13 13 13 13 13 13 13 13 13 13 14 14 14 14 14 15 15 15 15 15 15 15 15 14 14 14 14 14 14 14 14 14 14 14 14 14 14 14 14
12 13 13 13 13 13 13 13 13 13 13 13 13 14 14 14 14 14 14 15 15 15 15 15 15 15 15 15 14 14 14 14 14 14 14 14 14 14 14 14 14 14 14
12 12 13 13 13 13 13 13 13 13 13 14 14 14 14 14 14 14 15 15 15 15 15 15 15 15 15 15 15 14 14 14 14 14 14 14 14 14 14 14 14 14 14
12 12 12 12 12 13 13 13 13 13 13 14 14 14 14 14 14 14 14 15 15 15 15 15 15 15 15 15 15 14 14 14 14 14 14 14 14 13 13 13 13 13 13
12 12 12 12 12 12 12 12 12 13 13 13 13 13 13 13 14 14 14 14 14 15 15 15 15 15 15 15 14 14 14 14 14 14 14 13 13 13 13 13 13 13 13
12 12 12 12 12 12 12 12 12 12 12 12 12 12 13 13 13 13 14 14 14 14 14 14 14 14 14 14 14 14 14 14 14 14 14 13 13 13 13 13 13 13 12
12 12 12 12 12 12 12 11 11 11 11 11 11 12 12 12 13 13 13 13 14 14 14 14 14 14 14 14 14 14 14 14 14 14 13 13 13 13 13 13 13 12 12
12 12 12 12 12 12 11 11 11 11 11 11 11 11 11 12 12 12 13 13 13 13 13 13 14 14 14 14 14 14 14 14 14 14 13 13 13 13 13 13 12 12 12
12 12 11 11 11 11 11 11 10 10 10 11 11 11 11 11 11 12 12 12 12 13 13 13 13 13 13 14 14 14 14 14 14 13 13 13 13 13 12 12 12 12 12
12 12 11 11 11 11 11 11 10 10 10 10 10 10 11 11 11 11 11 11 12 12 12 12 12 13 13 13 13 14 14 13 13 13 13 13 13 12 12 12 12 12 12
12 12 12 11 11 11 11 11 10 10 11 10 10 10 10 10 10 10 10 11 11 11 12 12 12 12 13 13 13 13 13 13 13 13 13 12 12 12 12 12 11 11 11
12 12 12 11 11 11 11 11 11 11 11 10 10 10 10 10 10 10 10 10 11 11 11 11 11 12 12 12 12 13 13 13 13 12 12 12 12 11 11 11 11 11 11
13 12 12 11 11 11 11 11 11 11 10 10 10 9 9 9 10 10 10 10 10 11 11 11 11 11 11 12 12 12 12 12 12 12 12 11 11 11 11 11 11 10 10
13 12 12 11 11 11 11 11 10 10 10 10 9 9 9 9 9 9 9 10 10 10 10 10 10 11 11 11 11 11 11 11 11 11 11 11 11 10 10 10 10 10 10
13 12 12 11 11 11 11 10 10 10 9 9 9 9 9 9 9 9 9 10 10 10 10 10 10 10 10 10 10 10 10 10 10 10 10 10 10 10 10 9 9 9 9
13 12 12 12 11 11 11 10 10 10 9 9 9 9 9 9 9 9 9 9 10 10 10 10 10 10 10 10 10 10 10 10 10 10 10 9 9 9 9 9 9 9 8
13 12 12 12 11 11 11 11 10 10 10 9 9 8 8 9 9 9 9 9 9 10 10 10 9 9 9 9 9 9 9 9 9 9 9 9 9 8 8 8 8 8 8
13 12 12 12 12 11 11 11 11 10 10 9 9 9 8 8 9 9 9 9 9 9 9 9 9 9 9 9 9 9 9 9 9 9 8 8 8 8 8 8 8 8 8
13 13 12 12 12 12 11 11 11 10 10 10 9 9 8 8 9 9 9 9 9 9 9 9 9 9 9 9 9 9 8 8 8 8 8 8 8 7 8 8 8 8 7
13 13 12 12 12 12 11 11 11 11 10 10 10 9 9 9 9 9 9 9 9 9 9 9 9 9 9 9 8 8 8 8 8 8 8 7 7 7 8 8 8 7 7
13 13 13 13 12 12 12 11 11 11 10 10 10 9 9 9 9 9 9 9 9 9 9 9 9 9 9 9 9 9 8 8 8 8 8 8 7 7 7 7 7 7 7
13 13 13 13 13 12 12 12 11 11 11 10 10 10 9 9 9 9 9 10 10 10 10 10 10 9 9 9 9 9 9 8 8 8 8 8 8 8 8 8 7 7 6
14 13 13 13 13 13 12 12 12 11 11 11 10 10 10 9 9 10 10 10 10 10 10 10 10 10 10 10 10 9 9 9 8 8 8 8 8 8 8 8 7 7 6
14 14 13 13 13 13 13 12 12 12 11 11 11 10 10 10 10 10 10 10 10 10 10 10 10 10 10 10 10 10 9 9 9 8 8 8 8 8 8 8 7 7 6
14 14 13 13 13 13 13 12 12 12 12 11 11 11 10 10 10 10 10 10 10 10 10 10 10 10 10 10 10 10 10 9 9 9 9 9 8 8 8 7 7 7 6
Wind_Speed
7 7 7 7 6 6 6 5 5 4 3 3 2 1 1 0 1 2 3 5 5 5 4 5 5 4 3 3 3 3 4 4 4 3 2 2 2 2 2 6 10 11 12
7 6 7 6 6 6 6 5 5 5 5 4 3 2 1 1 1 0 2 3 5 5 5 5 4 4 4 3 3 3 3 4 4 4 2 2 2 2 2 2 4 7 9
7 7 8 7 7 7 6 6 6 5 5 4 4 4 4 4 3 2 2 3 3 3 4 4 5 5 4 3 3 3 2 2 3 2 2 1 2 1 0 1 2 2 5
8 8 8 8 7 6 6 6 6 6 5 5 5 6 6 6 5 4 3 1 1 1 2 4 5 6 6 5 4 3 3 2 2 1 1 1 1 1 0 1 2 2 2
8 9 8 8 7 8 8 8 8 8 8 7 7 7 6 5 5 5 4 3 2 1 1 2 3 6 8 6 4 4 4 3 2 1 1 1 1 1 1 1 2 2 2
8 9 9 9 9 9 8 8 9 9 8 8 8 8 8 7 9 8 4 2 2 2 2 2 2 4 6 6 7 6 6 4 3 2 1 0 1 1 1 1 1 1 2
8 8 8 8 9 8 8 8 8 7 7 7 7 6 6 8 12 11 8 3 2 2 3 3 3 3 3 3 3 4 3 3 4 4 3 2 1 1 0 1 1 1 1
7 7 7 8 8 8 8 8 7 6 6 6 6 6 6 10 15 13 9 5 3 2 2 3 4 4 3 4 4 3 1 0 2 3 3 2 2 1 1 1 0 1 2
6 6 6 7 8 8 8 7 6 5 6 6 5 7 8 9 15 14 10 4 4 5 4 4 4 4 3 6 6 5 4 2 2 4 3 3 2 3 3 3 3 3 3
4 4 5 6 7 7 7 7 6 6 6 6 7 7 7 8 14 15 10 4 5 4 4 4 5 4 4 7 6 7 6 3 3 4 3 4 4 5 5 3 2 2 2
4 5 5 5 6 7 7 6 7 7 8 8 7 7 8 9 12 15 12 5 3 4 4 3 3 5 6 6 6 5 5 5 4 4 4 3 4 4 4 4 3 2 2
5 6 6 6 6 6 7 7 7 7 7 7 7 7 7 8 10 12 14 10 6 4 3 2 3 6 8 7 5 6 8 7 5 5 4 4 3 3 3 4 6 6 5
5 5 5 6 6 6 7 7 6 6 6 6 6 7 6 7 9 14 14 12 10 5 4 6 7 9 8 7 9 9 7 6 5 5 4 3 2 3 3 3 5 8 10
6 5 4 5 6 6 6 6 6 6 6 6 6 6 6 6 7 8 7 7 8 7 6 8 10 12 10 9 8 7 6 5 5 5 4 3 3 4 5 4 4 4 5
6 5 4 4 5 5 5 5 5 4 4 4 4 4 5 6 8 10 7 6 5 5 5 6 7 7 8 7 7 7 6 6 6 4 5 5 5 5 5 4 4 4 4
5 4 4 4 3 3 4 3 6 5 7 8 7 5 4 7 10 12 14 15 13 11 9 8 8 7 7 7 7 7 7 6 6 5 5 5 5 5 5 5 5 5 5
5 4 4 4 4 4 3 2 1 3 6 7 9 10 10 11 12 12 13 15 15 13 10 8 7 7 7 6 6 6 6 5 5 5 5 5 5 5 5 5 4 4 4
4 4 4 4 4 4 4 3 2 1 1 3 5 8 10 11 12 12 11 10 9 9 7 7 6 6 6 6 6 5 5 5 5 5 5 5 5 4 5 5 4 4 3
4 3 3 2 3 3 3 3 3 2 2 1 3 5 7 8 11 12 10 7 6 6 6 6 5 5 5 5 5 5 5 5 5 5 5 5 4 4 4 4 4 5 4
3 5 4 3 3 3 3 4 4 3 3 2 1 1 3 4 4 5 5 5 5 4 4 4 4 5 5 5 4 4 5 5 5 5 4 4 4 4 4 4 4 3 3
3 3 4 3 3 4 4 4 5 4 4 3 1 1 2 3 3 3 3 3 3 3 3 3 3 4 4 4 3 4 5 4 4 4 4 3 4 4 4 4 4 3 3
2 3 3 3 3 3 4 4 5 5 5 5 2 1 3 3 2 2 2 2 2 2 2 2 2 2 2 2 3 3 3 4 4 3 3 3 3 4 3 3 3 3 3
2 3 3 3 4 5 4 4 5 5 6 5 5 3 3 3 3 3 3 2 2 2 3 3 2 2 2 3 4 3 3 2 1 1 3 4 3 3 3 3 3 3 3
2 3 3 4 4 5 5 5 5 6 6 6 6 5 5 4 4 4 4 3 3 3 3 3 3 4 5 4 4 4 3 1 1 2 4 4 4 3 3 3 3 3 3
3 3 3 4 5 5 5 5 5 6 6 6 6 6 5 5 5 5 4 4 4 4 5 4 5 6 6 5 4 3 3 2 2 4 5 5 4 4 3 3 3 2 2
4 4 4 4 5 6 6 6 6 6 6 6 6 6 6 6 6 6 5 5 4 4 5 6 7 8 8 6 5 4 3 3 4 6 7 6 4 4 4 3 4 3 3
Wind_Direction
14 19 26 27 33 47 54 60 66 67 71 77 75 75 92 187 209 198 208 195 182 191 193 188 196 187 178 182 172 174 181 176 212 259 261 263 242 234 198 208 221 226 229
13 23 26 26 33 38 39 44 52 52 46 39 35 38 19 354 351 229 238 218 202 195 196 188 198 185 181 181 173 184 187 188 194 237 273 273 253 241 218 223 224 227 228
20 27 29 29 34 33 28 31 39 44 39 36 36 37 36 33 15 327 269 252 232 213 195 186 186 168 177 173 173 176 180 175 179 200 263 288 279 285 277 277 262 257 249
27 29 30 27 29 30 33 37 38 43 48 48 44 44 47 43 29 5 355 319 296 266 210 187 177 172 173 166 160 158 146 131 137 156 263 312 304 313 34 274 290 274 269
32 32 27 26 30 36 40 44 48 51 57 58 59 52 44 45 32 23 18 26 17 53 110 154 180 181 172 163 154 153 137 122 109 97 58 13 350 347 295 270 266 292 292
35 33 32 35 38 39 41 49 55 56 56 59 61 57 48 38 27 27 29 39 32 93 110 126 159 170 170 158 151 153 148 141 141 132 122 104 311 302 308 307 299 352 323
36 33 32 37 39 37 44 48 50 51 54 57 53 51 43 26 28 25 31 50 58 96 134 131 135 138 132 133 150 151 156 155 153 151 154 192 210 268 323 20 13 13 323
35 32 33 38 37 34 39 41 41 44 49 51 46 40 33 25 28 27 30 41 57 66 97 133 140 134 145 161 153 146 146 30 180 154 161 180 179 168 145 146 123 59 15
36 35 35 41 42 40 38 34 31 40 42 43 40 35 31 17 24 30 39 35 53 54 58 83 111 123 146 153 143 135 112 64 79 134 145 137 114 98 96 72 51 60 37
47 52 48 47 50 45 40 37 35 43 43 48 45 36 30 18 20 28 35 42 57 55 46 49 64 83 110 138 142 140 140 141 113 94 75 65 55 48 54 68 92 84 72
68 71 59 55 58 50 43 37 37 41 43 42 41 29 22 16 15 23 30 39 49 61 59 40 29 62 89 112 124 137 151 142 122 111 93 69 50 39 33 35 53 99 100
85 78 61 50 55 54 50 41 36 39 42 33 29 21 12 7 9 14 26 36 50 71 60 32 34 71 80 83 91 110 118 115 107 101 89 73 58 41 28 33 49 61 70
104 93 76 65 55 50 52 47 39 35 39 32 30 23 7 4 5 14 22 32 44 59 55 66 76 75 71 68 75 87 93 99 103 101 97 79 57 44 40 41 43 60 57
122 120 106 87 68 52 48 47 48 38 35 33 29 19 6 3 7 6 9 21 32 47 55 61 66 66 63 59 60 62 66 81 97 97 91 69 55 51 44 44 49 46 50
127 131 127 108 98 77 61 47 46 34 26 30 16 7 9 8 1 15 33 33 37 52 61 60 57 56 58 55 55 55 55 59 65 64 74 72 63 59 46 39 55 58 63
131 141 149 143 127 115 101 64 29 26 22 27 28 24 6 16 27 42 49 51 52 62 69 65 62 59 60 58 59 56 53 54 58 66 69 72 72 70 60 48 55 67 68
145 152 153 162 164 164 158 137 73 357 3 13 18 26 36 39 44 47 52 55 50 58 69 66 63 60 58 57 58 62 57 48 55 63 66 65 70 70 67 60 58 63 61
143 149 145 156 169 179 185 184 173 145 9 350 357 15 33 42 46 47 49 60 53 52 61 63 60 56 56 59 58 58 55 49 51 55 59 61 67 75 73 66 61 70 67
152 156 150 151 158 160 159 154 149 138 105 38 11 9 25 42 47 45 49 62 68 61 56 55 52 52 53 56 57 57 57 54 51 52 53 58 67 80 80 75 73 69 68
187 187 167 159 158 159 154 146 142 141 131 109 67 12 13 48 47 36 42 57 68 66 62 59 52 53 52 54 57 59 57 53 48 51 53 59 67 81 91 87 82 74 59
209 214 192 166 176 178 171 165 163 161 162 166 196 229 130 105 98 84 74 72 83 88 82 74 64 56 53 56 67 70 68 56 47 50 58 64 78 85 87 87 82 70 62
205 223 217 203 201 192 183 175 168 171 177 181 201 207 129 118 129 126 120 118 120 123 124 108 85 66 62 68 85 91 78 59 39 38 62 79 90 96 96 89 80 66 63
234 234 227 219 203 194 183 178 177 181 187 191 190 191 177 168 170 171 171 168 160 150 140 125 111 97 92 88 90 107 115 91 17 32 95 102 103 102 100 94 88 81 68
264 243 229 221 209 200 198 199 194 191 189 190 191 191 189 189 189 188 184 178 174 172 168 161 159 156 146 126 108 103 106 100 86 105 121 126 120 113 105 94 83 82 83
276 258 239 221 213 211 209 207 203 198 193 192 194 193 191 189 190 190 186 183 181 188 190 179 167 164 162 155 145 127 107 93 115 135 134 129 126 126 121 111 99 87 91
275 266 253 232 219 212 208 208 207 203 200 199 197 194 191 191 192 190 185 183 187 194 195 193 189 181 174 167 158 145 121 106 125 138 137 130 126 130 128 119 117 103 101
Height
1504 1503 1501 1500 1499 1498 1498 1498 1499 1500 1501 1502 1504 1506 1508 1511 1512 1514 1516 1518 1520 1521 1522 1523 1524 1525 1525 1526 1526 1527 1527 1527 1528 1528 1529 1530 1530 1532 1533 1534 1535 1536 1537
1508 1506 1504 1503 1502 1501 1501 1501 1501 1502 1503 1504 1505 1507 1509 1510 1512 1513 1515 1517 1518 1520 1521 1522 1523 1524 1524 1524 1524 1525 1525 1525 1525 1525 1526 1526 1527 1528 1528 1529 1531 1531 1532
1511 1509 1508 1506 1505 1505 1504 1504 1504 1505 1505 1506 1507 1508 1509 1510 1511 1513 1514 1516 1518 1519 1520 1521 1522 1523 1523 1523 1523 1523 1523 1523 1523 1523 1523 1524 1524 1525 1525 1526 1527 1527 1528
1515 1513 1511 1510 1509 1508 1507 1507 1507 1507 1507 1507 1508 1508 1509 1510 1511 1512 1513 1515 1516 1517 1519 1520 1521 1522 1522 1522 1522 1522 1522 1522 1522 1522 1522 1522 1522 1522 1523 1523 1524 1524 1524
1519 1516 1514 1513 1512 1511 1510 1509 1508 1508 1508 1508 1508 1508 1509 1509 1510 1511 1512 1513 1514 1516 1518 1519 1520 1521 1522 1522 1522 1522 1522 1522 1522 1521 1521 1521 1521 1521 1521 1521 1521 1521 1521
1523 1521 1519 1517 1515 1514 1513 1511 1510 1510 1509 1509 1508 1508 1508 1508 1509 1509 1510 1511 1512 1514 1515 1517 1519 1520 1521 1521 1522 1522 1522 1522 1522 1522 1522 1521 1521 1521 1520 1519 1519 1519 1518
1527 1525 1523 1521 1519 1517 1516 1514 1513 1512 1511 1510 1509 1508 1508 1507 1507 1508 1508 1509 1510 1511 1513 1515 1517 1519 1520 1521 1522 1522 1522 1522 1522 1522 1522 1522 1521 1520 1519 1519 1518 1517 1517
1531 1529 1526 1524 1522 1520 1519 1517 1516 1515 1513 1512 1510 1509 1509 1507 1507 1506 1506 1507 1508 1509 1511 1513 1515 1517 1518 1520 1521 1522 1522 1523 1523 1522 1522 1522 1521 1520 1520 1519 1518 1518 1517
1534 1532 1530 1527 1525 1523 1521 1519 1518 1517 1515 1514 1512 1511 1510 1508 1507 1506 1506 1506 1507 1508 1509 1511 1513 1515 1517 1518 1520 1521 1522 1522 1523 1523 1522 1522 1522 1521 1521 1520 1519 1519 1518
1537 1535 1533 1530 1528 1525 1523 1522 1520 1519 1517 1516 1514 1512 1511 1509 1507 1506 1506 1506 1506 1507 1508 1509 1511 1513 1514 1516 1518 1520 1521 1522 1522 1523 1523 1523 1522 1522 1521 1521 1520 1520 1519
1541 1538 1536 1533 1530 1528 1526 1525 1523 1521 1520 1517 1516 1514 1512 1510 1508 1507 1506 1506 1506 1506 1507 1508 1510 1511 1513 1515 1517 1519 1520 1521 1522 1523 1523 1523 1523 1523 1522 1522 1521 1521 1520
1544 1541 1539 1536 1534 1532 1529 1527 1526 1524 1522 1520 1518 1515 1513 1511 1509 1508 1507 1507 1507 1507 1507 1508 1509 1511 1512 1514 1516 1518 1519 1520 1521 1522 1523 1523 1523 1523 1523 1522 1522 1521 1521
1546 1544 1541 1539 1537 1535 1533 1531 1529 1527 1525 1522 1520 1517 1515 1514 1512 1510 1509 1508 1508 1508 1509 1509 1510 1511 1513 1514 1516 1518 1519 1520 1521 1522 1523 1523 1523 1523 1523 1523 1523 1522 1521
1547 1546 1544 1542 1540 1538 1536 1534 1532 1530 1527 1525 1523 1520 1518 1516 1514 1513 1512 1511 1511 1510 1511 1511 1512 1514 1515 1516 1517 1518 1519 1521 1522 1522 1523 1523 1523 1524 1524 1524 1523 1523 1522
1549 1548 1546 1545 1543 1542 1540 1538 1535 1533 1531 1529 1526 1524 1522 1519 1518 1516 1515 1514 1514 1514 1514 1515 1515 1516 1517 1518 1519 1520 1521 1521 1522 1523 1523 1524 1524 1524 1524 1524 1523 1523 1522
1550 1549 1548 1547 1546 1544 1543 1540 1539 1536 1534 1532 1530 1527 1525 1524 1522 1520 1519 1518 1518 1518 1518 1518 1519 1519 1520 1521 1521 1522 1522 1523 1524 1524 1525 1525 1525 1525 1524 1524 1523 1523 1522
1551 1550 1549 1548 1547 1546 1545 1543 1541 1539 1537 1535 1533 1531 1529 1527 1526 1524 1523 1522 1522 1522 1521 1521 1522 1523 1523 1523 1524 1524 1524 1525 1525 1525 1525 1525 1525 1525 1524 1524 1523 1522 1522
1552 1551 1550 1549 1549 1548 1546 1545 1543 1542 1540 1538 1536 1534 1532 1530 1529 1528 1527 1526 1525 1525 1525 1525 1525 1525 1526 1526 1526 1526 1526 1526 1526 1526 1526 1525 1525 1525 1524 1524 1523 1523 1522
1553 1552 1551 1550 1550 1549 1548 1546 1545 1543 1542 1540 1538 1536 1534 1533 1532 1530 1530 1529 1528 1527 1527 1527 1527 1527 1527 1527 1527 1527 1527 1527 1526 1526 1526 1526 1525 1525 1525 1524 1523 1523 1522
1554 1553 1552 1551 1550 1549 1549 1547 1546 1545 1543 1541 1539 1538 1536 1535 1534 1533 1531 1531 1530 1529 1529 1528 1528 1528 1528 1528 1528 1528 1527 1527 1526 1526 1526 1526 1526 1525 1525 1524 1524 1523 1522
1554 1553 1552 1551 1550 1550 1549 1548 1547 1546 1544 1543 1541 1539 1538 1536 1535 1534 1533 1532 1531 1531 1530 1529 1529 1528 1528 1528 1528 1527 1527 1527 1527 1526 1526 1526 1526 1526 1525 1525 1524 1523 1523
1553 1552 1552 1551 1550 1549 1549 1548 1547 1546 1545 1544 1542 1540 1539 1538 1537 1535 1534 1533 1532 1532 1531 1530 1529 1529 1528 1528 1528 1527 1527 1527 1527 1527 1526 1526 1526 1526 1525 1525 1524 1523 1523
1551 1551 1550 1550 1549 1549 1548 1547 1547 1546 1545 1544 1542 1541 1540 1539 1537 1536 1535 1534 1533 1533 1532 1531 1530 1529 1529 1528 1528 1527 1527 1527 1527 1527 1527 1527 1526 1526 1525 1525 1524 1524 1524
1549 1548 1548 1548 1548 1547 1547 1546 1546 1545 1545 1544 1542 1541 1540 1539 1538 1537 1536 1535 1534 1533 1533 1532 1531 1530 1530 1529 1528 1528 1527 1527 1527 1527 1527 1527 1526 1526 1526 1525 1525 1524 1524
1546 1545 1546 1546 1546 1546 1545 1545 1544 1544 1543 1543 1542 1541 1540 1539 1538 1537 1536 1535 1535 1534 1533 1533 1532 1531 1531 1530 1529 1529 1528 1528 1528 1528 1528 1527 1527 1527 1526 1526 1526 1525 1525
1542 1542 1542 1543 1543 1543 1543 1543 1542 1542 1542 1541 1541 1540 1539 1538 1537 1536 1536 1535 1535 1534 1534 1533 1533 1532 1531 1531 1530 1529 1529 1529 1528 1528 1528 1528 1528 1527 1527 1527 1526 1526 1526